Time,TemperatureF,DewpointF,PressureIn,WindDirection,WindDirectionDegrees,WindSpeedMPH,WindSpeedGustMPH,Humidity,HourlyPrecipIn,Conditions,Clouds,dailyrainin,SoftwareType,DateUTC
2013-07-07 00:01:00,74.0,0.0,30.29,WSW,247,0.0,0.0,0,0.00,,,0.00,VWS V14.01,2013-07-07 04:01:00,
2013-07-07 00:02:00,74.0,0.0,30.29,WSW,247,0.0,0.0,0,0.00,,,0.00,VWS V14.01,2013-07-07 04:02:00,
2013-07-07 00:07:00,74.0,0.0,30.29,WSW,247,0.0,0.0,0,0.00,,,0.00,VWS V14.01,2013-07-07 04:07:00,
2013-07-07 00:12:00,74.0,0.0,30.29,SW,225,0.0,0.0,0,0.00,,,0.00,VWS V14.01,2013-07-07 04:12:00,
2013-07-07 00:17:00,74.0,0.0,30.29,SW,225,0.0,0.0,0,0.00,,,0.00,VWS V14.01,2013-07-07 04:17:00,
2013-07-07 00:22:00,74.0,0.0,30.29,SW,225,0.0,0.0,0,0.00,,,0.00,VWS V14.01,2013-07-07 04:22:00,
2013-07-07 00:27:00,74.0,0.0,30.30,SW,225,0.0,0.0,0,0.00,,,0.00,VWS V14.01,2013-07-07 04:27:00,
2013-07-07 00:32:00,74.0,0.0,30.30,SW,225,0.0,0.0,0,0.00,,,0.00,VWS V14.01,2013-07-07 04:32:00,
2013-07-07 00:37:00,74.0,0.0,30.29,SW,225,0.0,0.0,0,0.00,,,0.00,VWS V14.01,2013-07-07 04:37:00,
2013-07-07 00:42:00,74.0,0.0,30.29,SW,225,0.0,2.0,0,0.00,,,0.00,VWS V14.01,2013-07-07 04:42:00,
2013-07-07 00:47:00,74.0,0.0,30.30,SW,225,0.0,0.0,0,0.00,,,0.00,VWS V14.01,2013-07-07 04:47:00,
2013-07-07 00:52:00,74.0,0.0,30.30,SW,225,0.0,0.0,0,0.00,,,0.00,VWS V14.01,2013-07-07 04:52:00,
2013-07-07 00:57:00,74.0,0.0,30.31,SW,225,0.0,0.0,0,0.00,,,0.00,VWS V14.01,2013-07-07 04:57:00,
2013-07-07 01:02:00,73.0,0.0,30.31,SW,225,0.0,0.0,0,0.00,,,0.00,VWS V14.01,2013-07-07 05:02:00,
2013-07-07 01:07:00,73.0,0.0,30.31,SW,225,0.0,0.0,0,0.00,,,0.00,VWS V14.01,2013-07-07 05:07:00,
2013-07-07 01:12:00,73.0,0.0,30.31,SW,225,0.0,0.0,0,0.00,,,0.00,VWS V14.01,2013-07-07 05:12:00,
2013-07-07 01:17:00,73.0,0.0,30.32,SW,225,0.0,0.0,0,0.00,,,0.00,VWS V14.01,2013-07-07 05:17:00,
2013-07-07 01:22:00,73.0,0.0,30.32,SW,225,0.0,0.0,0,0.00,,,0.00,VWS V14.01,2013-07-07 05:22:00,
2013-07-07 01:27:00,73.0,0.0,30.32,SW,225,0.0,0.0,0,0.00,,,0.00,VWS V14.01,2013-07-07 05:27:00,
2013-07-07 01:32:00,73.0,0.0,30.32,SW,225,0.0,0.0,0,0.00,,,0.00,VWS V14.01,2013-07-07 05:32:00,
2013-07-07 01:37:00,73.0,0.0,30.33,SW,225,0.0,0.0,0,0.00,,,0.00,VWS V14.01,2013-07-07 05:37:00,
2013-07-07 01:42:00,73.0,0.0,30.34,SW,225,0.0,0.0,0,0.00,,,0.00,VWS V14.01,2013-07-07 05:42:00,
2013-07-07 01:47:00,73.0,0.0,30.34,SW,225,0.0,0.0,0,0.00,,,0.00,VWS V14.01,2013-07-07 05:47:00,
2013-07-07 01:52:00,73.0,0.0,30.34,SW,225,0.0,0.0,0,0.00,,,0.00,VWS V14.01,2013-07-07 05:52:00,
2013-07-07 01:57:00,73.0,0.0,30.34,SW,225,0.0,0.0,0,0.00,,,0.00,VWS V14.01,2013-07-07 05:57:00,
2013-07-07 02:02:00,73.0,0.0,30.34,SW,225,0.0,0.0,0,0.00,,,0.00,VWS V14.01,2013-07-07 06:02:00,
2013-07-07 02:07:00,73.0,0.0,30.34,SW,225,0.0,0.0,0,0.00,,,0.00,VWS V14.01,2013-07-07 06:07:00,
2013-07-07 02:12:00,73.0,0.0,30.35,SW,225,0.0,0.0,0,0.00,,,0.00,VWS V14.01,2013-07-07 06:12:00,
2013-07-07 02:17:00,73.0,0.0,30.35,SW,225,0.0,1.0,0,0.00,,,0.00,VWS V14.01,2013-07-07 06:17:00,
2013-07-07 02:22:00,73.0,0.0,30.36,SW,225,0.0,0.0,0,0.00,,,0.00,VWS V14.01,2013-07-07 06:22:00,
2013-07-07 02:27:00,73.0,0.0,30.36,SW,225,0.0,0.0,0,0.00,,,0.00,VWS V14.01,2013-07-07 06:27:00,
2013-07-07 02:32:00,73.0,0.0,30.36,SW,225,0.0,0.0,0,0.00,,,0.00,VWS V14.01,2013-07-07 06:32:00,
2013-07-07 02:37:00,72.0,0.0,30.36,SW,225,0.0,0.0,0,0.00,,,0.00,VWS V14.01,2013-07-07 06:37:00,
2013-07-07 02:42:00,72.0,0.0,30.37,SW,225,0.0,0.0,0,0.00,,,0.00,VWS V14.01,2013-07-07 06:42:00,
2013-07-07 02:47:00,72.0,0.0,30.37,SW,225,0.0,0.0,0,0.00,,,0.00,VWS V14.01,2013-07-07 06:47:00,
2013-07-07 02:52:00,72.0,0.0,30.37,SW,225,0.0,0.0,0,0.00,,,0.00,VWS V14.01,2013-07-07 06:52:00,
2013-07-07 02:57:00,72.0,0.0,30.37,SW,225,0.0,0.0,0,0.00,,,0.00,VWS V14.01,2013-07-07 06:57:00,
2013-07-07 03:02:00,72.0,0.0,30.37,SW,225,0.0,0.0,0,0.00,,,0.00,VWS V14.01,2013-07-07 07:02:00,
2013-07-07 03:07:00,72.0,0.0,30.37,SW,225,0.0,0.0,0,0.00,,,0.00,VWS V14.01,2013-07-07 07:07:00,
2013-07-07 03:12:00,72.0,0.0,30.38,SW,225,0.0,0.0,0,0.00,,,0.00,VWS V14.01,2013-07-07 07:12:00,
2013-07-07 03:17:00,72.0,0.0,30.38,SW,225,0.0,0.0,0,0.00,,,0.00,VWS V14.01,2013-07-07 07:17:00,
2013-07-07 03:22:00,72.0,0.0,30.39,SW,225,0.0,0.0,0,0.00,,,0.00,VWS V14.01,2013-07-07 07:22:00,
2013-07-07 03:27:00,72.0,0.0,30.39,SW,225,0.0,0.0,0,0.00,,,0.00,VWS V14.01,2013-07-07 07:27:00,
2013-07-07 03:32:00,72.0,0.0,30.39,SW,225,0.0,0.0,0,0.00,,,0.00,VWS V14.01,2013-07-07 07:32:00,
2013-07-07 03:37:00,72.0,0.0,30.39,SW,225,0.0,0.0,0,0.00,,,0.00,VWS V14.01,2013-07-07 07:37:00,
2013-07-07 03:42:00,72.0,0.0,30.40,SW,225,0.0,0.0,0,0.00,,,0.00,VWS V14.01,2013-07-07 07:42:00,
2013-07-07 03:47:00,72.0,0.0,30.40,SW,225,0.0,0.0,0,0.00,,,0.00,VWS V14.01,2013-07-07 07:47:00,
2013-07-07 03:52:00,72.0,0.0,30.40,SW,225,0.0,0.0,0,0.00,,,0.00,VWS V14.01,2013-07-07 07:52:00,
2013-07-07 03:57:00,72.0,0.0,30.40,WSW,247,0.0,1.0,0,0.00,,,0.00,VWS V14.01,2013-07-07 07:57:00,
2013-07-07 04:02:00,72.0,0.0,30.40,WSW,247,0.0,0.0,0,0.00,,,0.00,VWS V14.01,2013-07-07 08:02:00,
2013-07-07 04:07:00,72.0,0.0,30.40,WSW,247,0.0,0.0,0,0.00,,,0.00,VWS V14.01,2013-07-07 08:07:00,
2013-07-07 04:12:00,72.0,0.0,30.40,WSW,247,0.0,0.0,0,0.00,,,0.00,VWS V14.01,2013-07-07 08:12:00,
2013-07-07 04:17:00,72.0,0.0,30.40,WSW,247,0.0,0.0,0,0.00,,,0.00,VWS V14.01,2013-07-07 08:17:00,
2013-07-07 04:22:00,72.0,0.0,30.41,WSW,247,0.0,0.0,0,0.00,,,0.00,VWS V14.01,2013-07-07 08:22:00,
2013-07-07 04:27:00,72.0,0.0,30.41,WSW,247,0.0,0.0,0,0.00,,,0.00,VWS V14.01,2013-07-07 08:27:00,
2013-07-07 04:32:00,72.0,0.0,30.41,WSW,247,0.0,0.0,0,0.00,,,0.00,VWS V14.01,2013-07-07 08:32:00,
2013-07-07 04:37:00,72.0,0.0,30.41,WSW,247,0.0,0.0,0,0.00,,,0.00,VWS V14.01,2013-07-07 08:37:00,
2013-07-07 04:42:00,72.0,0.0,30.41,WSW,247,0.0,0.0,0,0.00,,,0.00,VWS V14.01,2013-07-07 08:42:00,
2013-07-07 04:47:00,72.0,0.0,30.41,WSW,247,0.0,0.0,0,0.00,,,0.00,VWS V14.01,2013-07-07 08:47:00,
2013-07-07 04:52:00,72.0,0.0,30.41,WSW,247,0.0,0.0,0,0.00,,,0.00,VWS V14.01,2013-07-07 08:52:00,
2013-07-07 04:57:00,72.0,0.0,30.41,WSW,247,0.0,0.0,0,0.00,,,0.00,VWS V14.01,2013-07-07 08:57:00,
2013-07-07 05:02:00,72.0,0.0,30.42,WSW,247,0.0,0.0,0,0.00,,,0.00,VWS V14.01,2013-07-07 09:02:00,
2013-07-07 05:07:00,72.0,0.0,30.42,WSW,247,0.0,0.0,0,0.00,,,0.00,VWS V14.01,2013-07-07 09:07:00,
2013-07-07 05:12:00,72.0,0.0,30.42,SW,225,0.0,0.0,0,0.00,,,0.00,VWS V14.01,2013-07-07 09:12:00,
2013-07-07 05:17:00,72.0,0.0,30.42,SW,225,0.0,5.0,0,0.00,,,0.00,VWS V14.01,2013-07-07 09:17:00,
2013-07-07 05:22:00,72.0,0.0,30.43,SW,225,0.0,3.0,0,0.00,,,0.00,VWS V14.01,2013-07-07 09:22:00,
2013-07-07 05:27:00,72.0,0.0,30.43,SW,225,0.0,2.0,0,0.00,,,0.00,VWS V14.01,2013-07-07 09:27:00,
2013-07-07 05:32:00,72.0,0.0,30.43,SSW,202,1.0,3.0,0,0.00,,,0.00,VWS V14.01,2013-07-07 09:32:00,
2013-07-07 05:37:00,72.0,0.0,30.43,SSW,202,0.0,5.0,0,0.00,,,0.00,VWS V14.01,2013-07-07 09:37:00,
2013-07-07 05:42:00,72.0,0.0,30.44,SW,225,0.0,4.0,0,0.00,,,0.00,VWS V14.01,2013-07-07 09:42:00,
2013-07-07 05:47:00,72.0,0.0,30.44,SW,225,0.0,3.0,0,0.00,,,0.00,VWS V14.01,2013-07-07 09:47:00,
2013-07-07 05:52:00,72.0,0.0,30.45,SW,225,0.0,4.0,0,0.00,,,0.00,VWS V14.01,2013-07-07 09:52:00,
2013-07-07 05:57:00,72.0,0.0,30.45,SW,225,2.0,5.0,0,0.00,,,0.00,VWS V14.01,2013-07-07 09:57:00,
2013-07-07 06:02:00,72.0,0.0,30.45,SSW,202,3.0,4.0,0,0.00,,,0.00,VWS V14.01,2013-07-07 10:02:00,
2013-07-07 06:07:00,72.0,0.0,30.45,WSW,247,0.0,4.0,0,0.00,,,0.00,VWS V14.01,2013-07-07 10:07:00,
2013-07-07 06:12:00,72.0,0.0,30.46,SW,225,3.0,4.0,0,0.00,,,0.00,VWS V14.01,2013-07-07 10:12:00,
2013-07-07 06:17:00,72.0,0.0,30.46,SW,225,0.0,4.0,0,0.00,,,0.00,VWS V14.01,2013-07-07 10:17:00,
2013-07-07 06:22:00,72.0,0.0,30.47,WSW,247,0.0,3.0,0,0.00,,,0.00,VWS V14.01,2013-07-07 10:22:00,
2013-07-07 06:27:00,72.0,0.0,30.47,SW,225,0.0,4.0,0,0.00,,,0.00,VWS V14.01,2013-07-07 10:27:00,
2013-07-07 06:32:00,72.0,0.0,30.46,WSW,247,1.0,4.0,0,0.00,,,0.00,VWS V14.01,2013-07-07 10:32:00,
2013-07-07 06:37:00,73.0,0.0,30.46,WSW,247,0.0,3.0,0,0.00,,,0.00,VWS V14.01,2013-07-07 10:37:00,
2013-07-07 06:42:00,73.0,0.0,30.45,WSW,247,0.0,3.0,0,0.00,,,0.00,VWS V14.01,2013-07-07 10:42:00,
2013-07-07 06:47:00,73.0,0.0,30.45,WSW,247,0.0,0.0,0,0.00,,,0.00,VWS V14.01,2013-07-07 10:47:00,
2013-07-07 06:52:00,73.0,0.0,30.44,SSW,202,0.0,2.0,0,0.00,,,0.00,VWS V14.01,2013-07-07 10:52:00,
2013-07-07 06:57:00,74.0,0.0,30.44,SW,225,0.0,4.0,0,0.00,,,0.00,VWS V14.01,2013-07-07 10:57:00,
2013-07-07 07:02:00,74.0,0.0,30.43,WSW,247,0.0,0.0,0,0.00,,,0.00,VWS V14.01,2013-07-07 11:02:00,
2013-07-07 07:08:00,74.0,0.0,30.43,SW,225,0.0,3.0,0,0.00,,,0.00,VWS V14.01,2013-07-07 11:08:00,
2013-07-07 07:13:00,75.0,0.0,30.41,SW,225,0.0,3.0,0,0.00,,,0.00,VWS V14.01,2013-07-07 11:13:00,
2013-07-07 07:18:00,75.0,0.0,30.41,SSW,202,5.0,5.0,0,0.00,,,0.00,VWS V14.01,2013-07-07 11:18:00,
2013-07-07 07:23:00,75.0,0.0,30.39,SW,225,0.0,6.0,0,0.00,,,0.00,VWS V14.01,2013-07-07 11:23:00,
2013-07-07 07:28:00,76.0,29.5,30.39,SW,225,0.0,5.0,18,0.00,,,0.00,VWS V14.01,2013-07-07 11:28:00,
2013-07-07 07:33:00,76.0,50.6,30.36,SSW,202,2.0,5.0,41,0.00,,,0.00,VWS V14.01,2013-07-07 11:33:00,
2013-07-07 07:38:00,76.0,60.7,30.36,SSW,202,4.0,6.0,59,0.00,,,0.00,VWS V14.01,2013-07-07 11:38:00,
2013-07-07 07:43:00,77.0,68.1,30.33,SSW,202,3.0,7.0,74,0.00,,,0.00,VWS V14.01,2013-07-07 11:43:00,
2013-07-07 07:48:00,77.0,68.5,30.33,SSW,202,3.0,4.0,75,0.00,,,0.00,VWS V14.01,2013-07-07 11:48:00,
2013-07-07 07:53:00,77.0,77.0,30.36,SW,225,3.0,8.0,100,0.00,,,0.00,VWS V14.01,2013-07-07 11:53:00,
2013-07-07 07:58:00,77.0,77.0,30.36,SSW,202,3.0,6.0,100,0.00,,,0.00,VWS V14.01,2013-07-07 11:58:00,
2013-07-07 08:03:00,78.0,78.0,30.37,SSW,202,0.0,7.0,100,0.00,,,0.00,VWS V14.01,2013-07-07 12:03:00,
2013-07-07 08:08:00,78.0,78.0,30.37,SSW,202,0.0,5.0,100,0.00,,,0.00,VWS V14.01,2013-07-07 12:08:00,
2013-07-07 08:13:00,78.0,78.0,30.35,SSW,202,5.0,9.0,100,0.00,,,0.00,VWS V14.01,2013-07-07 12:13:00,
2013-07-07 08:18:00,78.0,78.0,30.35,SSW,202,4.0,8.0,100,0.00,,,0.00,VWS V14.01,2013-07-07 12:18:00,
2013-07-07 08:23:00,78.0,78.0,30.34,SSW,202,7.0,9.0,100,0.00,,,0.00,VWS V14.01,2013-07-07 12:23:00,
2013-07-07 08:28:00,78.0,78.0,30.34,SSW,202,5.0,8.0,100,0.00,,,0.00,VWS V14.01,2013-07-07 12:28:00,
2013-07-07 08:33:00,78.0,78.0,30.33,SW,225,4.0,9.0,100,0.00,,,0.00,VWS V14.01,2013-07-07 12:33:00,
2013-07-07 08:38:00,79.0,79.0,30.33,SSW,202,9.0,9.0,100,0.00,,,0.00,VWS V14.01,2013-07-07 12:38:00,
2013-07-07 08:43:00,79.0,79.0,30.32,SSW,202,6.0,10.0,100,0.00,,,0.00,VWS V14.01,2013-07-07 12:43:00,
2013-07-07 08:48:00,79.0,79.0,30.32,SSW,202,5.0,10.0,100,0.00,,,0.00,VWS V14.01,2013-07-07 12:48:00,
2013-07-07 08:53:00,79.0,79.0,30.31,SSW,202,4.0,12.0,100,0.00,,,0.00,VWS V14.01,2013-07-07 12:53:00,
2013-07-07 08:58:00,79.0,79.0,30.31,SSW,202,3.0,9.0,100,0.00,,,0.00,VWS V14.01,2013-07-07 12:58:00,
2013-07-07 09:03:00,79.0,79.0,30.31,SSW,202,8.0,10.0,100,0.00,,,0.00,VWS V14.01,2013-07-07 13:03:00,
2013-07-07 09:08:00,79.0,79.0,30.31,SSW,202,9.0,9.0,100,0.00,,,0.00,VWS V14.01,2013-07-07 13:08:00,
2013-07-07 09:13:00,79.0,79.0,30.30,SSW,202,6.0,11.0,100,0.00,,,0.00,VWS V14.01,2013-07-07 13:13:00,
2013-07-07 09:18:00,79.0,79.0,30.30,SSW,202,6.0,11.0,100,0.00,,,0.00,VWS V14.01,2013-07-07 13:18:00,
2013-07-07 09:23:00,80.0,80.0,30.29,WNW,292,3.0,10.0,100,0.00,,,0.00,VWS V14.01,2013-07-07 13:23:00,
2013-07-07 09:28:00,80.0,80.0,30.29,WSW,247,5.0,10.0,100,0.00,,,0.00,VWS V14.01,2013-07-07 13:28:00,
2013-07-07 09:33:00,80.0,80.0,30.29,SW,225,6.0,7.0,100,0.00,,,0.00,VWS V14.01,2013-07-07 13:33:00,
2013-07-07 09:38:00,80.0,80.0,30.29,WSW,247,3.0,9.0,100,0.00,,,0.00,VWS V14.01,2013-07-07 13:38:00,
2013-07-07 09:43:00,80.0,80.0,30.29,SSW,202,3.0,9.0,100,0.00,,,0.00,VWS V14.01,2013-07-07 13:43:00,
2013-07-07 09:48:00,79.0,74.5,30.29,SSW,202,10.0,13.0,86,0.00,,,0.00,VWS V14.01,2013-07-07 13:48:00,
2013-07-07 09:53:00,80.0,78.4,30.27,SSW,202,6.0,10.0,95,0.00,,,0.00,VWS V14.01,2013-07-07 13:53:00,
2013-07-07 09:58:00,81.0,81.0,30.27,WSW,247,0.0,9.0,100,0.00,,,0.00,VWS V14.01,2013-07-07 13:58:00,
2013-07-07 10:03:00,81.0,80.1,30.27,WSW,247,7.0,10.0,97,0.00,,,0.00,VWS V14.01,2013-07-07 14:03:00,
2013-07-07 10:08:00,81.0,79.1,30.27,SSW,202,7.0,9.0,94,0.00,,,0.00,VWS V14.01,2013-07-07 14:08:00,
2013-07-07 10:13:00,81.0,73.1,30.26,SSW,202,9.0,12.0,77,0.00,,,0.00,VWS V14.01,2013-07-07 14:13:00,
2013-07-07 10:18:00,82.0,76.3,30.26,SSW,202,8.0,12.0,83,0.00,,,0.00,VWS V14.01,2013-07-07 14:18:00,
2013-07-07 10:23:00,81.0,74.2,30.25,SW,225,4.0,11.0,80,0.00,,,0.00,VWS V14.01,2013-07-07 14:23:00,
2013-07-07 10:28:00,82.0,73.3,30.25,South,180,4.0,8.0,75,0.00,,,0.00,VWS V14.01,2013-07-07 14:28:00,
2013-07-07 10:33:00,82.0,73.7,30.25,SSE,157,0.0,12.0,76,0.00,,,0.00,VWS V14.01,2013-07-07 14:33:00,
2013-07-07 10:38:00,82.0,77.1,30.25,SSW,202,9.0,13.0,85,0.00,,,0.00,VWS V14.01,2013-07-07 14:38:00,
2013-07-07 10:43:00,83.0,81.8,30.24,WNW,292,4.0,11.0,96,0.00,,,0.00,VWS V14.01,2013-07-07 14:43:00,
2013-07-07 10:48:00,83.0,77.3,30.24,NW,315,4.0,8.0,83,0.00,,,0.00,VWS V14.01,2013-07-07 14:48:00,
2013-07-07 10:53:00,82.0,64.8,30.23,WSW,247,6.0,10.0,56,0.00,,,0.00,VWS V14.01,2013-07-07 14:53:00,
2013-07-07 10:58:00,81.0,64.8,30.23,WSW,247,0.0,9.0,58,0.00,,,0.00,VWS V14.01,2013-07-07 14:58:00,
2013-07-07 11:03:00,81.0,67.2,30.24,SW,225,0.0,4.0,63,0.00,,,0.00,VWS V14.01,2013-07-07 15:03:00,
2013-07-07 11:08:00,82.0,64.3,30.24,SW,225,0.0,9.0,55,0.00,,,0.00,VWS V14.01,2013-07-07 15:08:00,
2013-07-07 11:13:00,82.0,67.2,30.22,SSW,202,8.0,11.0,61,0.00,,,0.00,VWS V14.01,2013-07-07 15:13:00,
2013-07-07 11:18:00,82.0,69.5,30.22,SSW,202,3.0,10.0,66,0.00,,,0.00,VWS V14.01,2013-07-07 15:18:00,
2013-07-07 11:23:00,82.0,63.7,30.22,SSW,202,0.0,7.0,54,0.00,,,0.00,VWS V14.01,2013-07-07 15:23:00,
2013-07-07 11:28:00,83.0,68.2,30.22,SSW,202,3.0,4.0,61,0.00,,,0.00,VWS V14.01,2013-07-07 15:28:00,
2013-07-07 11:33:00,83.0,56.2,30.21,WSW,247,5.0,11.0,40,0.00,,,0.00,VWS V14.01,2013-07-07 15:33:00,
2013-07-07 11:38:00,82.0,61.5,30.21,SW,225,11.0,17.0,50,0.00,,,0.00,VWS V14.01,2013-07-07 15:38:00,
2013-07-07 11:43:00,82.0,65.8,30.21,SSW,202,3.0,13.0,58,0.00,,,0.00,VWS V14.01,2013-07-07 15:43:00,
2013-07-07 11:48:00,82.0,64.8,30.21,SSW,202,5.0,11.0,56,0.00,,,0.00,VWS V14.01,2013-07-07 15:48:00,
2013-07-07 11:53:00,83.0,60.1,30.20,SW,225,8.0,13.0,46,0.00,,,0.00,VWS V14.01,2013-07-07 15:53:00,
2013-07-07 11:58:00,82.0,61.0,30.20,SSW,202,10.0,14.0,49,0.00,,,0.00,VWS V14.01,2013-07-07 15:58:00,
2013-07-07 12:03:00,83.0,63.0,30.20,SSW,202,10.0,13.0,51,0.00,,,0.00,VWS V14.01,2013-07-07 16:03:00,
2013-07-07 12:08:00,83.0,62.5,30.20,South,180,11.0,16.0,50,0.00,,,0.00,VWS V14.01,2013-07-07 16:08:00,
2013-07-07 12:14:00,83.0,66.2,30.19,SSW,202,10.0,17.0,57,0.00,,,0.00,VWS V14.01,2013-07-07 16:14:00,
2013-07-07 12:19:00,83.0,61.9,30.19,SSW,202,6.0,13.0,49,0.00,,,0.00,VWS V14.01,2013-07-07 16:19:00,
2013-07-07 12:24:00,83.0,66.2,30.19,SW,225,9.0,17.0,57,0.00,,,0.00,VWS V14.01,2013-07-07 16:24:00,
2013-07-07 12:29:00,82.0,70.0,30.19,SSW,202,6.0,15.0,67,0.00,,,0.00,VWS V14.01,2013-07-07 16:29:00,
2013-07-07 12:34:00,82.0,70.4,30.19,SSW,202,8.0,16.0,68,0.00,,,0.00,VWS V14.01,2013-07-07 16:34:00,
2013-07-07 12:39:00,82.0,65.3,30.19,South,180,8.0,11.0,57,0.00,,,0.00,VWS V14.01,2013-07-07 16:39:00,
2013-07-07 12:44:00,82.0,66.3,30.19,SSW,202,12.0,17.0,59,0.00,,,0.00,VWS V14.01,2013-07-07 16:44:00,
2013-07-07 12:49:00,83.0,70.9,30.19,South,180,5.0,12.0,67,0.00,,,0.00,VWS V14.01,2013-07-07 16:49:00,
2013-07-07 12:54:00,82.0,68.2,30.19,SSW,202,7.0,10.0,63,0.00,,,0.00,VWS V14.01,2013-07-07 16:54:00,
2013-07-07 12:59:00,83.0,70.9,30.19,SW,225,7.0,9.0,67,0.00,,,0.00,VWS V14.01,2013-07-07 16:59:00,
2013-07-07 13:04:00,83.0,67.7,30.18,SSW,202,6.0,8.0,60,0.00,,,0.00,VWS V14.01,2013-07-07 17:04:00,
2013-07-07 13:09:00,83.0,65.7,30.18,SW,225,12.0,13.0,56,0.00,,,0.00,VWS V14.01,2013-07-07 17:09:00,
2013-07-07 13:14:00,83.0,69.6,30.17,SSW,202,14.0,17.0,64,0.00,,,0.00,VWS V14.01,2013-07-07 17:14:00,
2013-07-07 13:19:00,83.0,66.7,30.17,South,180,16.0,16.0,58,0.00,,,0.00,VWS V14.01,2013-07-07 17:19:00,
2013-07-07 13:24:00,83.0,69.6,30.17,SSW,202,8.0,18.0,64,0.00,,,0.00,VWS V14.01,2013-07-07 17:24:00,
2013-07-07 13:29:00,83.0,61.9,30.17,SSW,202,5.0,12.0,49,0.00,,,0.00,VWS V14.01,2013-07-07 17:29:00,
2013-07-07 13:34:00,83.0,61.3,30.16,SW,225,12.0,17.0,48,0.00,,,0.00,VWS V14.01,2013-07-07 17:34:00,
2013-07-07 13:39:00,83.0,63.6,30.16,SSW,202,14.0,21.0,52,0.00,,,0.00,VWS V14.01,2013-07-07 17:39:00,
2013-07-07 13:44:00,82.0,65.3,30.15,SSW,202,16.0,20.0,57,0.00,,,0.00,VWS V14.01,2013-07-07 17:44:00,
2013-07-07 13:49:00,83.0,75.4,30.15,South,180,13.0,20.0,78,0.00,,,0.00,VWS V14.01,2013-07-07 17:49:00,
2013-07-07 13:54:00,83.0,67.2,30.15,SSW,202,13.0,14.0,59,0.00,,,0.00,VWS V14.01,2013-07-07 17:54:00,
2013-07-07 13:59:00,83.0,63.0,30.15,SSW,202,5.0,18.0,51,0.00,,,0.00,VWS V14.01,2013-07-07 17:59:00,
2013-07-07 14:04:00,83.0,64.7,30.15,SSW,202,11.0,14.0,54,0.00,,,0.00,VWS V14.01,2013-07-07 18:04:00,
2013-07-07 14:09:00,83.0,62.5,30.15,South,180,14.0,14.0,50,0.00,,,0.00,VWS V14.01,2013-07-07 18:09:00,
2013-07-07 14:14:00,84.0,55.7,30.14,SSW,202,12.0,14.0,38,0.00,,,0.00,VWS V14.01,2013-07-07 18:14:00,
2013-07-07 14:19:00,84.0,64.5,30.14,SSW,202,14.0,18.0,52,0.00,,,0.00,VWS V14.01,2013-07-07 18:19:00,
2013-07-07 14:24:00,84.0,67.1,30.14,South,180,17.0,17.0,57,0.00,,,0.00,VWS V14.01,2013-07-07 18:24:00,
2013-07-07 14:29:00,83.0,61.9,30.14,SSW,202,10.0,19.0,49,0.00,,,0.00,VWS V14.01,2013-07-07 18:29:00,
2013-07-07 14:34:00,83.0,61.3,30.14,SSW,202,13.0,19.0,48,0.00,,,0.00,VWS V14.01,2013-07-07 18:34:00,
2013-07-07 14:39:00,83.0,64.7,30.14,SW,225,15.0,19.0,54,0.00,,,0.00,VWS V14.01,2013-07-07 18:39:00,
2013-07-07 14:44:00,83.0,61.3,30.14,SSW,202,15.0,20.0,48,0.00,,,0.00,VWS V14.01,2013-07-07 18:44:00,
2013-07-07 14:49:00,83.0,65.7,30.14,South,180,15.0,16.0,56,0.00,,,0.00,VWS V14.01,2013-07-07 18:49:00,
2013-07-07 14:54:00,83.0,64.1,30.13,South,180,17.0,20.0,53,0.00,,,0.00,VWS V14.01,2013-07-07 18:54:00,
2013-07-07 14:59:00,84.0,64.5,30.13,SSW,202,10.0,20.0,52,0.00,,,0.00,VWS V14.01,2013-07-07 18:59:00,
2013-07-07 15:04:00,84.0,63.4,30.13,SSW,202,14.0,16.0,50,0.00,,,0.00,VWS V14.01,2013-07-07 19:04:00,
2013-07-07 15:09:00,84.0,70.1,30.13,SSW,202,7.0,16.0,63,0.00,,,0.00,VWS V14.01,2013-07-07 19:09:00,
2013-07-07 15:14:00,84.0,64.5,30.13,SSW,202,7.0,15.0,52,0.00,,,0.00,VWS V14.01,2013-07-07 19:14:00,
2013-07-07 15:19:00,84.0,65.6,30.13,SSW,202,10.0,17.0,54,0.00,,,0.00,VWS V14.01,2013-07-07 19:19:00,
2013-07-07 15:24:00,84.0,66.1,30.14,SW,225,10.0,15.0,55,0.00,,,0.00,VWS V14.01,2013-07-07 19:24:00,
2013-07-07 15:29:00,84.0,65.6,30.14,SSW,202,10.0,18.0,54,0.00,,,0.00,VWS V14.01,2013-07-07 19:29:00,
2013-07-07 15:34:00,84.0,64.5,30.14,SW,225,6.0,17.0,52,0.00,,,0.00,VWS V14.01,2013-07-07 19:34:00,
2013-07-07 15:39:00,84.0,70.1,30.14,SSW,202,7.0,16.0,63,0.00,,,0.00,VWS V14.01,2013-07-07 19:39:00,
2013-07-07 15:44:00,84.0,64.5,30.14,SSW,202,10.0,15.0,52,0.00,,,0.00,VWS V14.01,2013-07-07 19:44:00,
2013-07-07 15:49:00,83.0,58.2,30.14,SSW,202,14.0,20.0,43,0.00,,,0.00,VWS V14.01,2013-07-07 19:49:00,
2013-07-07 15:54:00,84.0,65.1,30.10,South,180,12.0,20.0,53,0.00,,,0.00,VWS V14.01,2013-07-07 19:54:00,
2013-07-07 15:59:00,84.0,66.6,30.10,SSW,202,10.0,18.0,56,0.00,,,0.00,VWS V14.01,2013-07-07 19:59:00,
2013-07-07 16:04:00,84.0,63.9,30.12,SSW,202,10.0,17.0,51,0.00,,,0.00,VWS V14.01,2013-07-07 20:04:00,
2013-07-07 16:09:00,84.0,68.6,30.12,SSW,202,9.0,16.0,60,0.00,,,0.00,VWS V14.01,2013-07-07 20:09:00,
2013-07-07 16:14:00,84.0,61.0,30.11,SSW,202,18.0,18.0,46,0.00,,,0.00,VWS V14.01,2013-07-07 20:14:00,
2013-07-07 16:19:00,84.0,64.5,30.11,SSW,202,13.0,18.0,52,0.00,,,0.00,VWS V14.01,2013-07-07 20:19:00,
2013-07-07 16:24:00,84.0,59.8,30.09,South,180,12.0,20.0,44,0.00,,,0.00,VWS V14.01,2013-07-07 20:24:00,
2013-07-07 16:32:00,84.0,57.1,30.09,SSW,202,11.0,17.0,40,0.00,,,0.00,VWS V14.01,2013-07-07 20:32:00,
2013-07-07 16:37:00,84.0,55.7,30.09,SSW,202,13.0,19.0,38,0.00,,,0.00,VWS V14.01,2013-07-07 20:37:00,
2013-07-07 16:42:00,84.0,67.1,30.09,SSW,202,10.0,19.0,57,0.00,,,0.00,VWS V14.01,2013-07-07 20:42:00,
2013-07-07 16:47:00,84.0,56.4,30.09,SSW,202,9.0,17.0,39,0.00,,,0.00,VWS V14.01,2013-07-07 20:47:00,
2013-07-07 16:52:00,84.0,60.4,30.08,SSW,202,8.0,17.0,45,0.00,,,0.00,VWS V14.01,2013-07-07 20:52:00,
2013-07-07 16:57:00,83.0,56.2,30.08,South,180,15.0,16.0,40,0.00,,,0.00,VWS V14.01,2013-07-07 20:57:00,
2013-07-07 17:02:00,83.0,54.1,30.07,SSW,202,17.0,19.0,37,0.00,,,0.00,VWS V14.01,2013-07-07 21:02:00,
2013-07-07 17:07:00,84.0,66.6,30.07,SSW,202,9.0,19.0,56,0.00,,,0.00,VWS V14.01,2013-07-07 21:07:00,
2013-07-07 17:12:00,83.0,58.9,30.07,South,180,16.0,20.0,44,0.00,,,0.00,VWS V14.01,2013-07-07 21:12:00,
2013-07-07 17:17:00,83.0,57.6,30.07,SSW,202,13.0,20.0,42,0.00,,,0.00,VWS V14.01,2013-07-07 21:17:00,
2013-07-07 17:22:00,83.0,60.1,30.07,SSW,202,18.0,23.0,46,0.00,,,0.00,VWS V14.01,2013-07-07 21:22:00,
2013-07-07 17:27:00,83.0,59.5,30.07,SSW,202,11.0,19.0,45,0.00,,,0.00,VWS V14.01,2013-07-07 21:27:00,
2013-07-07 17:32:00,83.0,64.7,30.06,SSW,202,9.0,17.0,54,0.00,,,0.00,VWS V14.01,2013-07-07 21:32:00,
2013-07-07 17:37:00,83.0,60.1,30.06,WSW,247,11.0,15.0,46,0.00,,,0.00,VWS V14.01,2013-07-07 21:37:00,
2013-07-07 17:42:00,83.0,63.0,30.06,SSW,202,11.0,15.0,51,0.00,,,0.00,VWS V14.01,2013-07-07 21:42:00,
2013-07-07 17:47:00,83.0,60.7,30.06,SSW,202,11.0,18.0,47,0.00,,,0.00,VWS V14.01,2013-07-07 21:47:00,
2013-07-07 17:52:00,83.0,60.7,30.06,SSW,202,8.0,17.0,47,0.00,,,0.00,VWS V14.01,2013-07-07 21:52:00,
2013-07-07 17:57:00,83.0,61.9,30.06,SSW,202,12.0,17.0,49,0.00,,,0.00,VWS V14.01,2013-07-07 21:57:00,
2013-07-07 18:02:00,83.0,57.6,30.06,SSW,202,13.0,16.0,42,0.00,,,0.00,VWS V14.01,2013-07-07 22:02:00,
2013-07-07 18:07:00,83.0,60.1,30.06,SW,225,9.0,15.0,46,0.00,,,0.00,VWS V14.01,2013-07-07 22:07:00,
2013-07-07 18:12:00,83.0,59.5,30.06,SSW,202,10.0,16.0,45,0.00,,,0.00,VWS V14.01,2013-07-07 22:12:00,
2013-07-07 18:17:00,82.0,56.0,30.06,SSW,202,11.0,14.0,41,0.00,,,0.00,VWS V14.01,2013-07-07 22:17:00,
2013-07-07 18:22:00,82.0,52.4,30.05,SSW,202,10.0,18.0,36,0.00,,,0.00,VWS V14.01,2013-07-07 22:22:00,
2013-07-07 18:27:00,82.0,51.7,30.05,SSW,202,11.0,15.0,35,0.00,,,0.00,VWS V14.01,2013-07-07 22:27:00,
2013-07-07 18:32:00,82.0,53.2,30.05,SSW,202,13.0,19.0,37,0.00,,,0.00,VWS V14.01,2013-07-07 22:32:00,
2013-07-07 18:37:00,82.0,46.6,30.05,SSW,202,9.0,17.0,29,0.00,,,0.00,VWS V14.01,2013-07-07 22:37:00,
2013-07-07 18:42:00,82.0,51.7,30.05,SSW,202,13.0,15.0,35,0.00,,,0.00,VWS V14.01,2013-07-07 22:42:00,
2013-07-07 18:47:00,82.0,48.4,30.05,SSW,202,10.0,14.0,31,0.00,,,0.00,VWS V14.01,2013-07-07 22:47:00,
2013-07-07 18:52:00,82.0,48.4,30.06,SSW,202,8.0,15.0,31,0.00,,,0.00,VWS V14.01,2013-07-07 22:52:00,
2013-07-07 18:57:00,82.0,52.4,30.06,SW,225,10.0,15.0,36,0.00,,,0.00,VWS V14.01,2013-07-07 22:57:00,
2013-07-07 19:02:00,82.0,55.3,30.07,SW,225,6.0,16.0,40,0.00,,,0.00,VWS V14.01,2013-07-07 23:02:00,
2013-07-07 19:07:00,81.0,54.4,30.07,SSW,202,8.0,15.0,40,0.00,,,0.00,VWS V14.01,2013-07-07 23:07:00,
2013-07-07 19:12:00,81.0,49.2,30.07,SSW,202,13.0,14.0,33,0.00,,,0.00,VWS V14.01,2013-07-07 23:12:00,
2013-07-07 19:17:00,81.0,44.9,30.07,SSW,202,16.0,16.0,28,0.00,,,0.00,VWS V14.01,2013-07-07 23:17:00,
2013-07-07 19:22:00,81.0,50.0,30.08,South,180,6.0,16.0,34,0.00,,,0.00,VWS V14.01,2013-07-07 23:22:00,
2013-07-07 19:27:00,81.0,43.9,30.08,SSW,202,9.0,11.0,27,0.00,,,0.00,VWS V14.01,2013-07-07 23:27:00,
2013-07-07 19:32:00,81.0,47.5,30.08,South,180,8.0,13.0,31,0.00,,,0.00,VWS V14.01,2013-07-07 23:32:00,
2013-07-07 19:37:00,80.0,35.4,30.08,SSW,202,9.0,14.0,20,0.00,,,0.00,VWS V14.01,2013-07-07 23:37:00,
2013-07-07 19:42:00,80.0,36.6,30.09,SSW,202,10.0,14.0,21,0.00,,,0.00,VWS V14.01,2013-07-07 23:42:00,
2013-07-07 19:47:00,80.0,13.5,30.09,SSW,202,5.0,12.0,8,0.00,,,0.00,VWS V14.01,2013-07-07 23:47:00,
2013-07-07 19:52:00,80.0,31.3,30.11,SSW,202,7.0,10.0,17,0.00,,,0.00,VWS V14.01,2013-07-07 23:52:00,
2013-07-07 19:57:00,79.0,20.0,30.11,SSW,202,4.0,10.0,11,0.00,,,0.00,VWS V14.01,2013-07-07 23:57:00,
2013-07-07 20:02:00,79.0,29.0,30.12,SSW,202,4.0,8.0,16,0.00,,,0.00,VWS V14.01,2013-07-08 00:02:00,
2013-07-07 20:07:00,79.0,6.3,30.12,SSW,202,6.0,10.0,6,0.00,,,0.00,VWS V14.01,2013-07-08 00:07:00,
2013-07-07 20:12:00,79.0,27.5,30.12,SSW,202,5.0,10.0,15,0.00,,,0.00,VWS V14.01,2013-07-08 00:12:00,
2013-07-07 20:17:00,78.0,31.1,30.12,SSW,202,7.0,10.0,18,0.00,,,0.00,VWS V14.01,2013-07-08 00:17:00,
2013-07-07 20:22:00,78.0,28.2,30.13,SW,225,7.0,12.0,16,0.00,,,0.00,VWS V14.01,2013-07-08 00:22:00,
2013-07-07 20:27:00,78.0,38.3,30.13,SSW,202,6.0,12.0,24,0.00,,,0.00,VWS V14.01,2013-07-08 00:27:00,
2013-07-07 20:32:00,78.0,47.4,30.14,SSW,202,4.0,10.0,34,0.00,,,0.00,VWS V14.01,2013-07-08 00:32:00,
2013-07-07 20:37:00,77.0,50.2,30.14,SW,225,3.0,8.0,39,0.00,,,0.00,VWS V14.01,2013-07-08 00:37:00,
2013-07-07 20:42:00,77.0,54.7,30.15,SW,225,4.0,8.0,46,0.00,,,0.00,VWS V14.01,2013-07-08 00:42:00,
2013-07-07 20:47:00,77.0,60.1,30.15,SSW,202,5.0,7.0,56,0.00,,,0.00,VWS V14.01,2013-07-08 00:47:00,
2013-07-07 20:52:00,77.0,66.1,30.16,SSW,202,3.0,9.0,69,0.00,,,0.00,VWS V14.01,2013-07-08 00:52:00,
2013-07-07 20:57:00,77.0,69.6,30.16,SSW,202,6.0,7.0,78,0.00,,,0.00,VWS V14.01,2013-07-08 00:57:00,
2013-07-07 21:02:00,77.0,72.5,30.16,SSW,202,5.0,8.0,86,0.00,,,0.00,VWS V14.01,2013-07-08 01:02:00,
2013-07-07 21:07:00,76.0,73.8,30.16,SSW,202,5.0,10.0,93,0.00,,,0.00,VWS V14.01,2013-07-08 01:07:00,
2013-07-07 21:08:00,76.0,73.8,30.16,SSW,202,7.0,10.0,93,0.00,,,0.00,VWS V14.01,2013-07-08 01:08:00,
2013-07-07 21:12:00,77.0,76.1,30.17,SSW,202,5.0,11.0,97,0.00,,,0.00,VWS V14.01,2013-07-08 01:12:00,
2013-07-07 21:17:00,76.0,76.0,30.17,SSW,202,8.0,12.0,100,0.00,,,0.00,VWS V14.01,2013-07-08 01:17:00,
2013-07-07 21:22:00,77.0,77.0,30.18,SSW,202,9.0,10.0,100,0.00,,,0.00,VWS V14.01,2013-07-08 01:22:00,
2013-07-07 21:27:00,76.0,76.0,30.18,SSW,202,10.0,13.0,100,0.00,,,0.00,VWS V14.01,2013-07-08 01:27:00,
2013-07-07 21:32:00,77.0,77.0,30.19,SSW,202,8.0,13.0,100,0.00,,,0.00,VWS V14.01,2013-07-08 01:32:00,
2013-07-07 21:37:00,76.0,76.0,30.19,SSW,202,7.0,13.0,100,0.00,,,0.00,VWS V14.01,2013-07-08 01:37:00,
2013-07-07 21:42:00,76.0,76.0,30.20,SSW,202,10.0,10.0,100,0.00,,,0.00,VWS V14.01,2013-07-08 01:42:00,
2013-07-07 21:47:00,76.0,76.0,30.20,SSW,202,6.0,12.0,100,0.00,,,0.00,VWS V14.01,2013-07-08 01:47:00,
2013-07-07 21:52:00,76.0,76.0,30.21,SSW,202,3.0,9.0,100,0.00,,,0.00,VWS V14.01,2013-07-08 01:52:00,
2013-07-07 21:57:00,76.0,76.0,30.21,SSW,202,6.0,11.0,100,0.00,,,0.00,VWS V14.01,2013-07-08 01:57:00,
2013-07-07 22:02:00,76.0,76.0,30.22,SSW,202,7.0,9.0,100,0.00,,,0.00,VWS V14.01,2013-07-08 02:02:00,
2013-07-07 23:39:00,74.0,48.2,30.28,SSW,202,2.0,8.0,40,0.00,,,0.00,VWS V14.01,2013-07-08 03:39:00,
2013-07-07 23:44:00,74.0,43.9,30.29,SSW,202,3.0,6.0,34,0.00,,,0.00,VWS V14.01,2013-07-08 03:44:00,
2013-07-07 23:49:00,74.0,40.6,30.29,SSW,202,0.0,7.0,30,0.00,,,0.00,VWS V14.01,2013-07-08 03:49:00,
2013-07-07 23:54:00,74.0,39.8,30.30,SSW,202,5.0,7.0,29,0.00,,,0.00,VWS V14.01,2013-07-08 03:54:00,
2013-07-07 23:59:00,74.0,35.0,30.30,SSW,202,0.0,9.0,24,0.00,,,0.00,VWS V14.01,2013-07-08 03:59:00,